User: anonymous   Login
Location: Corralito
(10.2667°N, 66.9500°W)
Time: 21:08:48
(UTC+00:00)
Language:

Cosmos 1805 - Orbit

View from above orbital plane
View from above orbital plane
View from above satellite
View from above satellite

Ground track
Ground track

The orbit data is extracted from the following two-line orbital elements,

1 17191U 86097A   24336.92711403  .00021262  00000-0  69490-3 0  9998
2 17191  82.4684 211.4518 0005377  33.7179 326.4403 15.31592040 75933
Epoch (UTC): 01 December 2024 22:15:02
Eccentricity: 0.0005377
inclination: 82.4684°
perigee height: 467 km
apogee height: 475 km
right ascension of ascending node: 211.4518°
argument of perigee: 33.7179°
revolutions per day: 15.31592040
mean anomaly at epoch: 326.4403°
orbit number at epoch: 7593

The dashed part of the orbit path shows where the satellite is in the earth's shadow,  

DLR